Probability
0 0 0 0 0 0 0 0 0 0 0 0 0 0 0 0 0 0 0 0 0 0 0 0 0 0 0 0 0 0 0 0 0 0 0 0 0 0 0 0 0 0 0 0
0 0 0 0 0 0 0 0 0 0 0 0 0 0 0 0 0 0 0 0 0 0 0 0 0 0 0 0 0 0 0 0 0 0 0 0 0 0 0 0 0 0 0 0
0 0 0 0 0 0 0 0 0 0 0 0 0 0 0 0 0 0 0 0 0 0 0 0 0 0 0 0 0 0 0 0 0 0 0 0 0 0 0 0 0 0 0 0
0 0 0 0 0 0 0 0 0 0 0 0 0 0 0 0 0 0 0 0 0 0 0 0 0 0 0 0 0 0 0 0 0 0 0 0 0 0 0 0 0 0 0 0
0 0 0 0 0 0 0 0 0 0 0 0 0 0 0 0 0 0 0 0 0 0 0 0 0 0 0 0 0 0 0 0 0 0 0 0 0 0 0 0 0 0 0 0
0 0 0 0 0 0 0 0 0 0 0 0 0 0 0 0 0 0 0 0 0 0 0 0 0 0 0 0 0 0 0 0 0 0 0 0 0 0 0 0 0 0 0 0
0 0 0 0 0 0 0 0 0 0 0 0 0 0 0 0 0 0 0 0 0 0 0 0 0 0 0 0 0 0 0 0 0 0 0 0 0 0 0 0 0 0 0 0
0 0 0 0 0 0 0 0 0 0 0 0 0 0 0 0 0 0 0 0 0 0 0 0 0 0 0 0 0 0 0 0 0 0 0 0 0 0 0 0 0 0 0 0
0 0 0 0 0 0 0 0 0 0 0 0 0 0 0 0 0 0 0 0 0 0 0 0 0 0 0 0 0 0 0 0 0 0 0 0 0 0 0 0 0 0 0 0
0 0 0 0 0 0 0 0 0 0 0 0 0 0 0 0 0 0 0 0 0 0 0 0 0 0 0 0 0 0 0 0 0 0 0 0 0 0 0 0 0 0 0 0
0 0 0 0 0 0 0 0 0 0 0 0 0 0 0 0 0 0 0 0 0 0 0 0 0 0 0 0 0 0 0 0 0 0 0 0 0 0 0 0 0 0 0 0
0 0 0 0 0 0 0 0 0 0 0 0 0 0 0 0 0 0 0 0 0 0 0 0 0 0 0 0 0 0 0 0 0 0 0 0 0 0 0 0 0 0 0 0
0 0 0 0 0 0 0 0 0 0 0 0 0 0 0 0 0 0 0 0 0 0 0 0 0 0 0 0 0 0 0 0 0 0 0 0 0 0 0 0 0 0 0 0
0 0 0 0 0 0 0 0 0 0 0 0 0 0 0 0 0 0 0 0 0 0 0 0 0 0 0 0 0 0 0 0 0 0 0 0 0 0 0 0 0 0 0 0
0 0 0 0 0 0 0 0 0 0 0 0 0 0 0 0 0 0 0 0 0 0 0 0 0 0 0 0 0 0 0 0 0 0 0 0 0 0 0 0 0 0 0 0
0 0 0 0 0 0 0 0 0 0 0 0 0 0 0 0 0 0 0 0 0 0 0 0 0 0 0 0 0 0 0 0 0 0 0 0 0 0 0 0 0 0 0 0
0 0 0 0 0 0 0 0 0 0 0 0 0 0 0 0 0 0 0 0 0 0 0 0 0 0 0 0 0 0 0 0 0 0 0 0 0 0 0 0 0 0 0 0
0 0 0 0 0 0 0 0 0 0 0 0 0 0 0 0 0 0 0 0 0 0 0 0 0 0 0 0 0 0 0 0 0 0 0 0 0 0 0 0 0 0 0 0
0 0 0 0 0 0 0 0 0 0 0 0 0 0 0 0 0 0 0 0 0 0 0 0 0 0 0 0 0 0 0 0 0 0 0 0 0 0 0 0 0 0 0 0
0 0 0 0 0 0 0 0 0 0 0 0 0 0 0 0 0 0 0 0 0 0 0 0 0 0 0 0 0 0 0 0 0 0 0 0 0 0 0 0 0 0 0 0
0 0 0 0 0 0 0 0 0 0 0 0 0 0 0 0 0 0 0 0 0 0 0 0 0 0 0 0 0 0 0 0 0 0 0 0 0 0 0 0 0 0 0 0
0 0 0 0 0 0 0 0 0 0 0 0 0 0 0 0 0 0 0 0 0 0 0 0 0 0 0 0 0 0 0 0 0 0 0 0 0 0 0 0 0 0 0 0
0 0 0 0 0 0 0 0 0 0 0 0 0 0 0 0 0 0 0 0 0 0 0 0 0 0 0 0 0 0 0 0 0 0 0 0 0 0 0 0 0 0 0 0
0 0 0 0 0 0 0 0 0 0 0 0 0 0 0 0 0 0 0 0 0 0 0 0 0 0 0 0 0 0 0 0 0 0 0 0 0 0 0 0 0 0 0 0
0 0 0 0 0 0 0 0 0 0 0 0 0 0 0 0 0 0 0 0 0 0 0 0 0 0 0 0 0 0 0 0 0 0 0 0 0 0 0 0 0 0 0 0
0 0 0 0 0 0 0 0 0 0 0 0 0 0 0 0 0 0 0 0 0 0 0 0 0 0 0 0 0 0 0 0 0 0 0 0 0 0 0 0 0 0 0 0
0 0 0 0 0 0 0 0 0 0 0 0 0 0 0 0 0 0 0 0 0 0 0 0 0 0 0 0 0 0 0 0 0 0 0 0 0 0 0 0 0 0 0 0
Wind_Speed
6 5 3 6 7 8 9 9 9 9 9 11 6 5 5 4 3 3 3 3 3 3 2 2 1 2 2 2 1 1 1 2 2 3 3 3 3 3 3 3 4 4 4 4
4 4 5 7 9 9 10 9 10 10 12 9 6 3 4 4 4 4 4 4 3 3 3 2 2 2 2 1 1 1 1 2 3 3 3 3 3 3 3 3 3 3 4 4
3 3 3 8 9 10 7 7 8 11 11 5 4 4 5 5 4 4 3 3 3 3 3 3 2 2 2 2 1 1 1 2 3 3 3 3 3 3 3 3 3 4 4 4
1 1 6 7 2 5 6 6 7 7 6 5 6 5 4 3 3 3 3 3 3 2 2 2 1 1 1 1 1 1 2 3 3 3 3 3 3 3 3 3 3 4 4 4
2 3 8 8 3 3 4 6 5 7 7 6 4 2 3 1 1 2 3 3 3 3 2 1 1 1 0 1 1 1 2 3 3 3 3 3 3 4 4 4 4 4 4 4
3 3 7 6 2 1 2 5 3 4 5 4 0 1 4 2 1 2 2 1 1 1 1 1 1 1 0 1 1 2 3 3 3 3 3 3 4 4 4 4 4 4 4 4
5 6 10 5 1 2 3 7 2 2 3 2 3 4 3 2 2 2 2 1 1 1 1 1 1 1 0 1 3 3 3 3 3 3 3 3 3 3 3 4 4 4 5 5
5 6 11 3 4 6 7 2 1 2 2 2 3 2 2 2 1 1 1 1 0 1 1 1 1 1 1 3 3 3 3 3 3 3 3 3 3 3 3 4 4 4 4 5
9 9 4 4 6 4 2 2 2 2 2 2 2 2 2 2 2 1 1 1 1 1 1 1 1 1 2 3 2 2 2 3 3 3 3 3 2 3 3 3 3 3 3 4
5 7 5 4 4 3 3 4 3 3 3 2 3 3 3 2 2 2 2 2 1 1 1 2 2 2 2 3 2 2 2 3 3 3 3 3 2 2 3 3 3 3 4 4
6 6 4 5 6 6 4 3 3 3 3 3 3 3 3 2 2 2 2 2 1 2 2 3 3 3 3 2 1 2 2 2 3 2 3 3 3 2 3 3 3 4 4 4
8 7 6 6 4 5 4 4 4 4 3 2 3 3 3 3 2 2 2 2 2 2 3 3 3 3 2 2 1 2 2 2 2 2 2 2 3 4 5 5 7 7 7 6
7 5 5 5 4 3 4 5 4 4 4 4 3 3 3 2 2 2 2 2 3 3 3 3 3 3 3 2 2 2 2 2 2 2 2 2 2 3 4 5 6 7 7 7
5 3 3 4 5 4 4 4 3 3 3 3 3 2 2 2 2 2 3 3 3 3 3 3 3 3 3 2 2 2 2 3 3 2 2 2 2 3 2 3 4 4 6 8
5 5 6 4 3 2 2 2 2 3 3 2 2 2 2 2 3 4 3 3 2 2 3 2 3 4 3 2 2 2 2 2 2 2 2 2 2 2 2 3 3 4 4 5
4 3 3 4 4 4 3 3 4 4 4 3 3 3 3 3 3 3 3 2 2 3 3 3 4 4 3 2 2 2 2 3 3 1 1 1 2 2 2 2 3 3 3 4
4 5 5 5 5 5 5 5 5 5 4 4 4 3 3 2 2 3 3 3 3 4 3 3 4 4 3 2 2 2 2 2 3 1 1 1 2 2 2 2 2 3 3 4
6 7 6 5 5 5 5 4 4 4 4 4 3 3 3 3 4 4 4 3 3 3 4 4 4 3 3 2 2 1 1 1 1 1 1 1 1 2 2 2 2 3 3 4
5 5 5 5 5 4 4 4 4 4 3 3 3 4 4 4 4 4 3 2 3 4 4 4 5 3 2 3 2 1 1 1 1 1 1 2 2 1 1 2 2 3 3 3
4 4 4 4 3 3 4 3 3 3 3 3 3 3 4 4 4 3 3 4 4 4 4 3 3 2 2 2 2 1 1 1 1 1 1 1 1 1 2 2 2 3 3 3
3 3 4 4 3 3 3 4 3 4 4 3 4 5 5 4 3 3 3 4 5 4 3 4 2 2 2 2 2 1 1 1 1 1 1 1 1 2 2 2 2 3 3 3
3 3 4 3 3 3 3 3 3 4 3 3 4 4 4 4 4 3 4 5 4 4 3 2 2 3 3 2 1 1 2 1 1 1 1 1 2 2 2 2 2 3 3 3
3 4 4 4 4 4 3 3 3 4 4 4 5 5 5 5 3 3 4 3 3 5 3 2 4 5 4 1 1 2 2 2 2 2 2 2 2 2 2 2 3 3 3 3
4 4 4 3 2 2 3 4 3 3 3 4 5 5 4 3 3 4 4 5 5 5 3 4 5 5 3 1 1 2 2 2 2 2 2 2 2 2 2 2 3 3 3 3
3 3 3 3 3 3 4 3 2 3 3 3 4 4 3 3 4 3 3 3 5 4 2 3 4 4 1 1 1 2 2 2 2 2 2 2 2 2 2 2 3 3 3 3
3 3 3 4 3 3 2 2 2 3 3 3 3 2 2 2 3 2 2 3 4 3 2 1 2 2 1 1 2 2 2 2 2 2 2 2 2 2 2 3 3 3 3 3
2 2 2 2 2 3 2 3 3 3 3 3 3 3 2 2 2 2 2 2 2 2 1 1 1 1 1 2 2 2 2 2 2 2 2 2 2 2 3 3 3 3 3 3
Wind_Direction
254 262 232 232 232 212 210 211 218 242 246 263 265 256 252 245 241 225 220 218 208 205 215 226 240 255 260 272 282 289 307 315 303 303 307 313 318 321 324 324 321 315 313 309
275 263 254 258 246 229 227 227 237 256 266 264 271 271 263 253 242 230 221 222 221 215 215 223 235 254 261 277 283 283 288 293 298 307 314 317 318 322 322 322 322 321 315 308
259 301 331 266 236 216 215 213 206 232 248 273 285 270 250 249 235 226 236 228 220 221 220 225 238 246 250 269 284 285 286 296 303 308 313 315 319 325 321 319 320 316 310 310
239 24 240 244 225 198 214 236 228 244 265 268 263 271 260 235 220 239 249 244 231 224 228 244 260 263 257 279 287 275 281 288 297 307 308 313 318 317 312 307 309 307 307 307
175 237 275 287 258 184 198 260 237 238 266 280 296 317 293 263 231 240 243 234 224 217 218 224 239 240 236 303 301 289 288 288 292 296 298 304 307 305 304 304 304 300 298 301
173 208 241 252 248 206 116 275 259 219 251 264 168 279 270 284 298 297 291 237 213 204 181 192 249 222 135 297 309 291 285 287 289 286 282 285 288 294 298 296 296 299 300 298
202 229 260 258 238 115 177 251 260 208 229 209 212 230 262 292 286 278 276 265 213 175 180 220 227 162 217 278 279 281 288 285 286 286 281 275 282 289 293 297 299 298 300 298
183 213 251 215 148 189 222 250 199 212 219 225 236 256 275 283 279 298 321 318 276 228 248 260 226 174 248 274 279 291 296 292 286 285 284 284 281 290 292 291 294 296 300 302
196 217 243 187 203 219 196 213 223 218 232 221 235 254 269 281 279 289 296 296 295 259 277 298 285 214 249 280 291 303 309 305 296 293 289 282 274 283 291 289 290 296 299 301
241 257 256 252 251 251 228 227 233 222 224 210 227 248 267 281 290 284 286 280 284 294 286 288 288 274 264 280 289 293 298 303 307 303 301 296 287 284 285 286 291 296 298 301
244 263 287 265 241 240 244 236 235 242 233 218 212 235 244 265 274 266 279 287 279 263 265 270 279 283 285 286 276 281 291 296 305 305 303 306 306 295 290 278 279 288 287 287
229 219 212 240 232 219 222 233 229 227 249 245 214 225 233 248 257 259 267 278 281 280 282 280 278 282 284 278 257 267 289 294 294 297 304 314 316 321 326 316 314 313 310 305
233 233 227 243 242 219 219 234 231 224 226 237 238 222 223 244 255 255 265 271 266 269 275 280 283 281 282 275 260 251 269 283 287 291 296 307 310 309 315 327 332 329 326 325
235 225 248 246 245 242 229 229 223 229 233 229 229 224 220 243 265 264 264 267 269 274 277 278 280 278 279 269 262 261 268 279 286 279 282 284 289 294 300 311 318 320 324 329
237 225 230 244 249 248 232 216 223 240 242 245 226 218 220 233 252 263 271 278 281 282 281 279 281 283 285 272 267 266 264 266 272 276 281 285 292 301 309 310 309 311 317 323
239 239 235 239 245 245 232 223 229 239 237 236 235 236 234 233 249 267 274 267 264 273 276 276 278 282 282 273 269 264 261 274 286 281 286 297 302 305 310 313 312 312 315 318
218 236 237 244 246 244 237 232 230 233 231 231 234 238 239 239 257 270 274 268 257 261 266 266 276 289 286 265 251 252 257 268 280 293 278 287 294 297 300 307 311 313 313 317
223 229 225 222 230 235 240 237 231 229 231 233 226 224 228 233 245 258 269 280 286 288 279 273 278 287 282 269 252 239 242 250 255 258 274 282 293 296 299 302 309 313 319 322
230 231 233 233 229 225 232 234 233 231 231 218 213 227 236 240 246 255 261 259 262 273 279 279 288 284 280 275 278 220 218 234 255 270 269 277 298 304 307 307 310 314 317 320
232 232 231 238 237 226 231 238 233 233 231 216 215 226 241 250 249 251 250 249 248 251 261 271 276 273 268 263 273 210 202 212 224 245 260 261 268 285 295 300 307 311 313 315
240 240 236 237 245 243 234 228 225 235 238 219 216 226 237 248 242 233 239 259 265 260 259 269 266 262 257 254 254 204 200 211 223 231 238 245 260 277 286 295 301 303 305 308
246 242 239 238 239 251 253 237 227 231 235 235 235 233 237 246 245 244 243 245 258 265 262 250 249 250 253 258 210 199 205 212 224 231 235 238 249 265 279 289 293 298 303 306
253 245 239 238 239 247 260 249 231 228 233 235 233 230 231 235 229 232 257 252 247 259 262 244 248 252 255 235 196 200 206 214 225 235 239 243 249 258 268 280 288 292 295 300
256 248 244 240 227 235 252 258 247 241 240 246 242 234 228 232 243 237 240 251 255 261 258 251 253 253 251 200 194 201 209 221 230 235 239 245 252 260 264 271 280 285 287 292
251 245 231 216 225 239 244 250 254 251 247 253 254 247 235 226 229 237 227 228 239 253 261 256 255 256 244 198 205 212 213 218 225 228 230 237 248 257 262 266 272 278 283 286
251 248 243 237 237 238 235 232 241 249 246 255 262 249 236 230 222 221 220 223 227 240 243 241 240 242 225 215 219 218 217 231 251 251 238 241 248 254 261 267 271 274 278 282
259 254 255 261 256 240 231 230 236 244 241 238 251 246 230 225 217 212 213 217 216 220 222 221 218 212 212 216 219 220 221 223 228 232 236 241 246 251 257 263 270 273 275 279